Location: Fornova de Taro
(44.7000°N, 10.1000°E)
Time: 23:10:08
(UTC+00:00)

IDEFIX/ARIANE 42P - Pass Details

Date: 26 May 2022
Orbit: 785 x 802 km, 98.5° (Epoch: 02 July)

Event Time Altitude Azimuth Distance (km) Brightness Sun altitude
Rises 01:38:42 0° 14° (NNE) 3,324 7.1 -16.7°
Reaches altitude 10° 01:41:03 10° 15° (NNE) 2,389 6.2 -16.4°
Maximum altitude 01:46:21 85° 104° (ESE) 812 2.6 -15.9°
Enters shadow 01:49:56 21° 192° (SSW) 1,726 3.8 -15.5°
